Hourly Weather Kerema

Today, 21 September, Monday

Time Temperature Precipitation Wind Pressure Humidity
00:00 +27°C° 0 mm 2 mps 755 mmHg 96%
01:00 +27°C° 0 mm 2 mps 755 mmHg 96%
02:00 +27°C° 0.1 mm 1 mps 755 mmHg 96%
03:00 +27°C° 0.1 mm 1 mps 755 mmHg 96%
04:00 +27°C° 0 mm 1 mps 755 mmHg 96%
05:00 +27°C° 0 mm 1 mps 755 mmHg 95%
06:00 +27°C° 0 mm 1 mps 755 mmHg 94%
07:00 +27°C° 0 mm 1 mps 756 mmHg 93%
08:00 +29°C° 0 mm 1 mps 756 mmHg 83%
09:00 +31°C° 0 mm 1 mps 756 mmHg 74%
10:00 +34°C° 0 mm 1 mps 756 mmHg 64%
11:00 +34°C° 0 mm 1 mps 755 mmHg 64%
12:00 +35°C° 0 mm 2 mps 754 mmHg 64%
13:00 +35°C° 0 mm 3 mps 754 mmHg 64%
14:00 +34°C° 0.1 mm 3 mps 753 mmHg 69%
15:00 +33°C° 0.1 mm 3 mps 753 mmHg 75%
16:00 +31°C° 0 mm 3 mps 753 mmHg 80%
17:00 +30°C° 0.2 mm 3 mps 754 mmHg 84%
18:00 +29°C° 0.2 mm 3 mps 754 mmHg 89%
19:00 +28°C° 0.2 mm 3 mps 755 mmHg 94%
20:00 +28°C° 0.1 mm 3 mps 755 mmHg 94%
21:00 +27°C° 0.1 mm 3 mps 755 mmHg 95%
22:00 +28°C° 0 mm 3 mps 756 mmHg 95%
23:00 +27°C° 0.1 mm 3 mps 756 mmHg 95%

Tomorrow, 22 September, Tuesday

Time Temperature Precipitation Wind Pressure Humidity
00:00 +27°C° 0.1 mm 3 mps 755 mmHg 95%
01:00 +27°C° 0.1 mm 2 mps 755 mmHg 96%
02:00 +27°C° 0.2 mm 2 mps 755 mmHg 96%
03:00 +27°C° 0.2 mm 2 mps 755 mmHg 97%
04:00 +27°C° 0.2 mm 2 mps 754 mmHg 97%
05:00 +27°C° 0.1 mm 2 mps 755 mmHg 96%
06:00 +27°C° 0.1 mm 1 mps 755 mmHg 94%
07:00 +27°C° 0.1 mm 1 mps 756 mmHg 93%
08:00 +29°C° 0 mm 1 mps 756 mmHg 84%
09:00 +31°C° 0 mm 1 mps 756 mmHg 74%
10:00 +34°C° 0 mm 1 mps 756 mmHg 65%
11:00 +34°C° 0.3 mm 2 mps 755 mmHg 67%
12:00 +34°C° 0.3 mm 2 mps 754 mmHg 69%
13:00 +34°C° 0.3 mm 3 mps 753 mmHg 70%
14:00 +33°C° 0.8 mm 3 mps 753 mmHg 76%
15:00 +30°C° 0.8 mm 3 mps 753 mmHg 82%
16:00 +29°C° 0.8 mm 2 mps 753 mmHg 87%
17:00 +29°C° 0.2 mm 2 mps 754 mmHg 90%
18:00 +28°C° 0.2 mm 3 mps 754 mmHg 92%
19:00 +28°C° 0.2 mm 3 mps 755 mmHg 95%
20:00 +27°C° 0.2 mm 2 mps 755 mmHg 95%
21:00 +27°C° 0.2 mm 2 mps 756 mmHg 96%
22:00 +27°C° 0.2 mm 1 mps 756 mmHg 96%
23:00 +27°C° 0.1 mm 1 mps 755 mmHg 96%

Day after tomorrow, 23 September, Wednesday

Time Temperature Precipitation Wind Pressure Humidity
00:00 +27°C° 0.1 mm 1 mps 755 mmHg 96%
01:00 +27°C° 0.1 mm 1 mps 755 mmHg 97%
02:00 +27°C° 0.1 mm 1 mps 755 mmHg 97%
03:00 +26°C° 0.1 mm 1 mps 755 mmHg 97%
04:00 +26°C° 0.1 mm 1 mps 754 mmHg 97%
05:00 +26°C° 0.1 mm 1 mps 755 mmHg 95%
06:00 +27°C° 0.1 mm 1 mps 755 mmHg 94%
07:00 +27°C° 0.1 mm 1 mps 756 mmHg 93%
08:00 +29°C° 0 mm 2 mps 756 mmHg 84%
09:00 +31°C° 0 mm 2 mps 756 mmHg 75%
10:00 +34°C° 0 mm 2 mps 756 mmHg 66%
11:00 +34°C° 0.5 mm 3 mps 755 mmHg 68%
12:00 +34°C° 0.5 mm 3 mps 754 mmHg 70%
13:00 +34°C° 0.5 mm 4 mps 754 mmHg 73%
14:00 +33°C° 0.9 mm 4 mps 754 mmHg 77%
15:00 +31°C° 0.9 mm 3 mps 754 mmHg 81%
16:00 +30°C° 0.9 mm 3 mps 754 mmHg 85%
17:00 +29°C° 0.9 mm 4 mps 754 mmHg 88%
18:00 +28°C° 0.9 mm 4 mps 755 mmHg 92%
19:00 +27°C° 0.9 mm 5 mps 755 mmHg 96%
20:00 +27°C° 3.1 mm 4 mps 756 mmHg 96%
21:00 +27°C° 3.1 mm 4 mps 756 mmHg 97%
22:00 +26°C° 3.1 mm 4 mps 757 mmHg 97%
23:00 +26°C° 1.7 mm 3 mps 756 mmHg 97%

24 September, Thursday

Time Temperature Precipitation Wind Pressure Humidity
00:00 +26°C° 1.7 mm 2 mps 756 mmHg 97%
01:00 +26°C° 1.7 mm 1 mps 755 mmHg 96%
02:00 +26°C° 0.1 mm 1 mps 755 mmHg 96%
03:00 +26°C° 0.1 mm 1 mps 755 mmHg 96%
04:00 +26°C° 0.1 mm 1 mps 755 mmHg 95%
05:00 +26°C° 0 mm 1 mps 755 mmHg 94%
06:00 +26°C° 0 mm 1 mps 756 mmHg 93%
07:00 +26°C° 0 mm 1 mps 756 mmHg 92%
08:00 +28°C° 0 mm 1 mps 756 mmHg 83%
09:00 +30°C° 0 mm 1 mps 756 mmHg 74%
10:00 +32°C° 0 mm 1 mps 756 mmHg 65%
11:00 +32°C° 0.1 mm 2 mps 755 mmHg 67%
12:00 +32°C° 0.1 mm 2 mps 754 mmHg 70%
13:00 +33°C° 0.1 mm 3 mps 753 mmHg 72%
14:00 +31°C° 0.2 mm 3 mps 753 mmHg 74%
15:00 +31°C° 0.2 mm 3 mps 753 mmHg 75%
16:00 +32°C° 0.2 mm 4 mps 753 mmHg 77%
17:00 +30°C° 0.2 mm 4 mps 754 mmHg 83%
18:00 +28°C° 0.2 mm 4 mps 754 mmHg 89%
19:00 +27°C° 0.2 mm 5 mps 755 mmHg 94%
20:00 +27°C° 0.2 mm 4 mps 755 mmHg 95%
21:00 +27°C° 0.2 mm 4 mps 756 mmHg 95%
22:00 +27°C° 0.2 mm 4 mps 756 mmHg 95%
23:00 +27°C° 0.3 mm 4 mps 756 mmHg 95%

25 September, Friday

Time Temperature Precipitation Wind Pressure Humidity
00:00 +27°C° 0.3 mm 4 mps 756 mmHg 95%
01:00 +27°C° 0.3 mm 4 mps 755 mmHg 96%
02:00 +27°C° 1 mm 4 mps 755 mmHg 96%
03:00 +26°C° 1 mm 4 mps 755 mmHg 96%
04:00 +26°C° 1 mm 4 mps 755 mmHg 96%
05:00 +26°C° 0.9 mm 4 mps 755 mmHg 96%
06:00 +27°C° 0.9 mm 3 mps 755 mmHg 96%
07:00 +27°C° 0.9 mm 3 mps 756 mmHg 96%
08:00 +27°C° 0.8 mm 3 mps 756 mmHg 92%
09:00 +28°C° 0.8 mm 2 mps 756 mmHg 89%
10:00 +29°C° 0.8 mm 2 mps 757 mmHg 86%
11:00 +30°C° 1 mm 2 mps 756 mmHg 82%
12:00 +30°C° 1 mm 2 mps 755 mmHg 79%
13:00 +31°C° 1 mm 3 mps 755 mmHg 76%
14:00 +30°C° 1.1 mm 3 mps 754 mmHg 81%
15:00 +29°C° 1.1 mm 3 mps 754 mmHg 85%
16:00 +29°C° 1.1 mm 3 mps 754 mmHg 89%
17:00 +28°C° 0.9 mm 3 mps 754 mmHg 92%
18:00 +27°C° 0.9 mm 3 mps 755 mmHg 94%
19:00 +27°C° 0.9 mm 3 mps 755 mmHg 96%
20:00 +26°C° 1.5 mm 3 mps 756 mmHg 96%
21:00 +26°C° 1.5 mm 3 mps 756 mmHg 96%
22:00 +26°C° 1.5 mm 3 mps 757 mmHg 96%
23:00 +26°C° 0.6 mm 3 mps 756 mmHg 96%

26 September, Saturday

Time Temperature Precipitation Wind Pressure Humidity
00:00 +26°C° 0.6 mm 3 mps 756 mmHg 96%
01:00 +26°C° 0.6 mm 2 mps 756 mmHg 96%
02:00 +26°C° 0.4 mm 2 mps 755 mmHg 96%
03:00 +26°C° 0.4 mm 2 mps 755 mmHg 96%
04:00 +26°C° 0.4 mm 2 mps 755 mmHg 97%
05:00 +26°C° 0.7 mm 2 mps 756 mmHg 96%
06:00 +26°C° 0.7 mm 2 mps 756 mmHg 94%
07:00 +27°C° 0.7 mm 1 mps 757 mmHg 93%
08:00 +28°C° 0.9 mm 1 mps 757 mmHg 88%
09:00 +29°C° 0.9 mm 1 mps 757 mmHg 83%
10:00 +31°C° 0.9 mm 1 mps 757 mmHg 78%
11:00 +31°C° 0.6 mm 2 mps 756 mmHg 76%
12:00 +33°C° 0.6 mm 3 mps 755 mmHg 73%
13:00 +33°C° 0.6 mm 3 mps 755 mmHg 71%
14:00 +31°C° 0.7 mm 3 mps 755 mmHg 75%
15:00 +30°C° 0.7 mm 4 mps 754 mmHg 80%
16:00 +30°C° 0.7 mm 4 mps 754 mmHg 84%
17:00 +29°C° 0.8 mm 4 mps 754 mmHg 87%
18:00 +28°C° 0.8 mm 4 mps 755 mmHg 91%
19:00 +27°C° 0.8 mm 4 mps 755 mmHg 94%
20:00 +27°C° 0.6 mm 4 mps 756 mmHg 94%
21:00 +27°C° 0.6 mm 4 mps 756 mmHg 94%
22:00 +27°C° 0.6 mm 4 mps 757 mmHg 94%
23:00 +26°C° 1.1 mm 4 mps 756 mmHg 94%
Show more